Patuxent River, MD

5:19 PM EDT on March 26, 2017 (GMT -0400)
Patuxent River Naval Air Station

Weather History for KNHK - January, 2014

Change the Weather History Date:

Friday, January 31, 2014

  Actual Average Record
Temperature  
Mean Temperature 24 °F -  
Max Temperature 37 °F 42 °F 64 °F (1982)
Min Temperature 12 °F 27 °F 12 °F (1977)
Degree Days  
Heating Degree Days 40    
Moisture  
Dew Point 15 °F    
Average Humidity 67    
Maximum Humidity 88    
Minimum Humidity 36    
Precipitation  
Precipitation 0.00 in - - ()
Snow  
Snow 0.00 in - - ()
Snow Depth 2.00 in    
Sea Level Pressure  
Sea Level Pressure 30.18 in    
Wind  
Wind Speed 3 mph (ESE)    
Max Wind Speed 7 mph    
Max Gust Speed -    
Visibility 10 miles    
Events      
Averages and records for this station are not official NWS values.
T = Trace of Precipitation, MM = Missing Value Source: NWS Daily Summary

Daily Weather History Graph

Daily Weather History Graph

Search for Another Location

Airport or City:

Trip Planner

Search our weather history database for the weather conditions in past years. The results will help you decide how hot, cold, wet, or windy it might be!

Date:

Astronomy

Jan. 31, 2014 Rise Set
Actual Time 7:11 AM EST 5:27 PM EST
Civil Twilight 6:43 AM EST 5:55 PM EST
Nautical Twilight 6:11 AM EST 6:26 PM EST
Astronomical Twilight 5:40 AM EST 6:57 PM EST
Moon 7:21 AM EST (1/31) 6:47 PM EST (1/31)
Length of Visible Light 11h 11m
Length of Day
10h 15m
New Moon, 1% of the Moon is Illuminated
Jan 31
New Moon
Feb 6
First Quarter
Feb 14
Full
Feb 22
Last Quarter
Mar 1
New

Hourly Weather History & Observations

Time (EST) Temp. Windchill Dew Point Humidity Pressure Visibility Wind Dir Wind Speed Gust Speed Precip Events Conditions
12:52 AM 19.0 °F 12.3 °F 16.0 °F 88% 30.19 in 10.0 mi South 4.6 mph - N/A   Clear
1:52 AM 17.1 °F - 14.0 °F 88% 30.19 in 10.0 mi Calm Calm - N/A   Clear
2:52 AM 12.9 °F 3.8 °F 10.0 °F 88% 30.16 in 10.0 mi SSE 5.8 mph - N/A   Clear
3:52 AM 18.0 °F 9.8 °F 12.9 °F 81% 30.14 in 10.0 mi SSE 5.8 mph - N/A   Clear
4:52 AM 18.0 °F - 14.0 °F 84% 30.16 in 10.0 mi Calm Calm - N/A   Clear
5:01 AM 17.1 °F 11.7 °F 12.9 °F 84% 30.16 in 10.0 mi SE 3.5 mph - N/A   Scattered Clouds
5:52 AM 16.0 °F - 12.9 °F 88% 30.16 in 10.0 mi Calm Calm - N/A   Scattered Clouds
6:52 AM 18.0 °F - 12.0 °F 78% 30.15 in 10.0 mi Calm Calm - N/A   Scattered Clouds
7:52 AM 19.0 °F - 14.0 °F 81% 30.16 in 10.0 mi Calm Calm - N/A   Mostly Cloudy
8:52 AM 28.0 °F - 17.1 °F 63% 30.17 in 10.0 mi Calm Calm - N/A   Mostly Cloudy
9:52 AM 30.0 °F - 10.0 °F 43% 30.19 in 10.0 mi Calm Calm - N/A   Mostly Cloudy
10:52 AM 30.9 °F 24.3 °F 15.1 °F 52% 30.19 in 10.0 mi ESE 6.9 mph - N/A   Mostly Cloudy
11:52 AM 32.0 °F 26.4 °F 15.1 °F 50% 30.19 in 10.0 mi East 5.8 mph - N/A   Mostly Cloudy
12:52 PM 35.1 °F 32.2 °F 14.0 °F 42% 30.17 in 10.0 mi ENE 3.5 mph - N/A   Mostly Cloudy
1:52 PM 35.1 °F 32.2 °F 12.9 °F 40% 30.15 in 10.0 mi ESE 3.5 mph - N/A   Mostly Cloudy
2:52 PM 37.9 °F 33.5 °F 12.9 °F 36% 30.15 in 10.0 mi East 5.8 mph - N/A   Mostly Cloudy
3:52 PM 37.0 °F 34.5 °F 17.1 °F 44% 30.16 in 10.0 mi SE 3.5 mph - N/A   Mostly Cloudy
4:52 PM 37.0 °F 33.3 °F 14.0 °F 39% 30.17 in 10.0 mi SSE 4.6 mph - N/A   Mostly Cloudy
5:52 PM 32.0 °F - 14.0 °F 48% 30.19 in 10.0 mi Calm Calm - N/A   Mostly Cloudy
6:52 PM 28.0 °F 24.2 °F 18.0 °F 66% 30.22 in 10.0 mi NE 3.5 mph - N/A   Mostly Cloudy
7:52 PM 25.0 °F - 17.1 °F 72% 30.22 in 10.0 mi Calm Calm - N/A   Overcast
8:52 PM 28.0 °F - 19.9 °F 72% 30.23 in 10.0 mi Calm Calm - N/A   Overcast
9:52 PM 24.1 °F - 19.0 °F 81% 30.24 in 10.0 mi Calm Calm - N/A   Overcast
10:52 PM 24.1 °F - 19.0 °F 81% 30.24 in 10.0 mi Calm Calm - N/A   Overcast
11:52 PM 24.1 °F - 19.9 °F 84% 30.23 in 10.0 mi Calm Calm - N/A   Clear